| time (UTC) | temp F | wind direction | speed MPH | gust MPH | rain 1hr in | rain 24hr in | rain mn in | humidity % | barometer mb |
| 20260505034530 | 68 | 315 | 7.0 | 12.0 | 0.00 | 0.00 | 0.00 | 32 | 1008.7 |
| 20260505033030 | 69 | 301 | 5.0 | 13.0 | 0.00 | 0.00 | 0.00 | 31 | 1008.4 |
| 20260505031537 | 69 | 335 | 5.0 | 12.0 | 0.00 | 0.00 | 0.00 | 31 | 1008.3 |
| 20260505030032 | 71 | 331 | 5.0 | 12.0 | 0.00 | 0.00 | 0.00 | 31 | 1008.0 |
| 20260505024529 | 72 | 315 | 5.0 | 11.0 | 0.00 | 0.00 | 0.00 | 30 | 1007.7 |
| 20260505023030 | 73 | 355 | 6.0 | 13.0 | 0.00 | 0.00 | 0.00 | 28 | 1007.5 |
| 20260505021529 | 74 | 344 | 8.0 | 15.0 | 0.00 | 0.00 | 0.00 | 28 | 1007.2 |
| 20260505020038 | 77 | 333 | 6.0 | 12.0 | 0.00 | 0.00 | 0.00 | 24 | 1007.1 |
| 20260505014527 | 77 | 298 | 4.0 | 11.0 | 0.00 | 0.00 | 0.00 | 24 | 1007.1 |
| 20260505013026 | 78 | 9 | 4.0 | 9.0 | 0.00 | 0.00 | 0.00 | 24 | 1007.1 |
| 20260505011526 | 77 | 317 | 5.0 | 11.0 | 0.00 | 0.00 | 0.00 | 24 | 1007.2 |
| 20260505010025 | 79 | 351 | 4.0 | 12.0 | 0.00 | 0.00 | 0.00 | 25 | 1007.3 |
| 20260505004524 | 77 | 334 | 5.0 | 11.0 | 0.00 | 0.00 | 0.00 | 25 | 1007.2 |
| 20260505003028 | 78 | 334 | 5.0 | 13.0 | 0.00 | 0.00 | 0.00 | 27 | 1007.3 |
| 20260505001523 | 79 | 355 | 6.0 | 14.0 | 0.00 | 0.00 | 0.00 | 25 | 1007.3 |
| 20260505000022 | 80 | 300 | 5.0 | 10.0 | 0.00 | 0.00 | 0.00 | 23 | 1007.3 |
| 20260504234521 | 80 | 348 | 6.0 | 14.0 | 0.00 | 0.00 | 0.00 | 23 | 1007.4 |
| 20260504233022 | 80 | 328 | 9.0 | 15.0 | 0.00 | 0.00 | 0.00 | 22 | 1007.3 |
| 20260504231519 | 80 | 329 | 6.0 | 15.0 | 0.00 | 0.00 | 0.00 | 22 | 1007.5 |
| 20260504230017 | 81 | 321 | 8.0 | 14.0 | 0.00 | 0.00 | 0.00 | 22 | 1007.7 |
| 20260504224522 | 80 | 296 | 7.0 | 14.0 | 0.00 | 0.00 | 0.00 | 21 | 1008.0 |
| 20260504223014 | 80 | 332 | 7.0 | 18.0 | 0.00 | 0.00 | 0.00 | 21 | 1008.1 |
| 20260504221512 | 80 | 333 | 7.0 | 13.0 | 0.00 | 0.00 | 0.00 | 21 | 1008.2 |
| 20260504220012 | 80 | 310 | 8.0 | 13.0 | 0.00 | 0.00 | 0.00 | 21 | 1008.4 |
| 20260504214509 | 80 | 280 | 5.0 | 22.0 | 0.00 | 0.00 | 0.00 | 22 | 1008.5 |
| 20260504213009 | 80 | 319 | 7.0 | 15.0 | 0.00 | 0.00 | 0.00 | 23 | 1008.5 |
| 20260504211507 | 80 | 306 | 6.0 | 14.0 | 0.00 | 0.00 | 0.00 | 24 | 1008.6 |
| 20260504210011 | 79 | 327 | 5.0 | 13.0 | 0.00 | 0.00 | 0.00 | 25 | 1008.7 |
| 20260504204510 | 79 | 327 | 7.0 | 12.0 | 0.00 | 0.00 | 0.00 | 24 | 1008.7 |
| 20260504203006 | 79 | 347 | 8.0 | 15.0 | 0.00 | 0.00 | 0.00 | 25 | 1008.7 |
| 20260504201507 | 80 | 360 | 4.0 | 16.0 | 0.00 | 0.00 | 0.00 | 25 | 1008.8 |
| 20260504200004 | 78 | 321 | 8.0 | 17.0 | 0.00 | 0.00 | 0.00 | 24 | 1008.8 |
| 20260504194601 | 78 | 337 | 6.0 | 11.0 | 0.00 | 0.00 | 0.00 | 26 | 1009.0 |
| 20260504193059 | 78 | 275 | 5.0 | 12.0 | 0.00 | 0.00 | 0.00 | 26 | 1009.1 |
| 20260504191609 | 78 | 340 | 4.0 | 11.0 | 0.00 | 0.00 | 0.00 | 30 | 1009.2 |
| 20260504190055 | 77 | 336 | 4.0 | 14.0 | 0.00 | 0.00 | 0.00 | 30 | 1009.5 |
| 20260504184550 | 76 | 246 | 3.0 | 10.0 | 0.00 | 0.00 | 0.00 | 31 | 1009.8 |
| 20260504183048 | 75 | 78 | 3.0 | 10.0 | 0.00 | 0.00 | 0.00 | 31 | 1009.9 |
| 20260504181545 | 75 | 267 | 2.0 | 10.0 | 0.00 | 0.00 | 0.00 | 33 | 1010.1 |
| 20260504180042 | 73 | 333 | 3.0 | 7.0 | 0.00 | 0.00 | 0.00 | 33 | 1010.4 |
| 20260504174538 | 72 | 244 | 2.0 | 6.0 | 0.00 | 0.00 | 0.00 | 34 | 1010.6 |
| 20260504173034 | 70 | 11 | 1.0 | 4.0 | 0.00 | 0.00 | 0.00 | 34 | 1010.7 |
| 20260504171530 | 68 | 12 | 1.0 | 5.0 | 0.00 | 0.00 | 0.00 | 35 | 1010.8 |
| 20260504081524 | 47 | 119 | 1.0 | 3.0 | 0.00 | 0.00 | 0.00 | 68 | 1011.2 |
| 20260504050003 | 56 | 82 | 0.0 | 2.0 | 0.00 | 0.00 | 0.00 | 49 | 1010.2 |
| 20260504044509 | 57 | 98 | 1.0 | 2.0 | 0.00 | 0.00 | 0.00 | 50 | 1010.2 |
| 20260504043007 | 58 | 109 | 0.0 | 2.0 | 0.00 | 0.00 | 0.00 | 48 | 1010.1 |
| 20260504041502 | 62 | 74 | 0.0 | 3.0 | 0.00 | 0.00 | 0.00 | 43 | 1009.9 |
| 20260504040002 | 63 | 111 | 1.0 | 3.0 | 0.00 | 0.00 | 0.00 | 42 | 1009.7 |